Skip Page Navigation
NASA JPL Caltech
NASA Logo - Jet Propulsion Laboratory + View the NASA Portal
+ Near-Earth Object (NEO) Program
Search JPL
JPL Home Earth Solar System Stars & Galaxies Technology
JPL Solar System Dynamics
BODIES ORBITS EPHEMERIDES TOOLS PHYSICAL DATA DISCOVERY FAQ SITE MAP
JPL Small-Body Database Browser
Search: [ help ]  
69230 Hermes (1937 UB)
Classification: Apollo [NEO, PHA]          SPK-ID: 2069230
Ephemeris | Orbit Diagram | Orbital Elements | Physical Parameters | Discovery Circumstances | Close-Approach Data ]

[ show orbit diagram ]
Orbital Elements at Epoch 2456400.5 (2013-Apr-18.0) TDB
Reference: JPL 86 (heliocentric ecliptic J2000)
 Element Value Uncertainty (1-sigma)   Units 
e .6239868367300818 1.5346e-08  
a 1.655353034201825 1.6156e-09 AU
q .6224345307186853 2.6004e-08 AU
i 6.067774158503629 6.3674e-06 deg
node 34.25958899656691 6.9026e-06 deg
peri 92.68483238307967 6.8077e-06 deg
M 135.2169886642689 2.8547e-06 deg
tp 2456108.311492734418
(2012-Jun-29.81149273)
5.7414e-06 JED
period 777.9189852894965
2.13
1.1389e-06
3.118e-09
d
yr
n .4627731252323515 6.775e-10 deg/d
Q 2.688271537684965 2.6237e-09 AU
  Orbit Determination Parameters
   # obs. used (total)      827  
   # delay obs. used      3  
   # Doppler obs. used      3  
   data-arc span      26962 days (73.82 yr)  
   first obs. used      1937-10-25  
   last obs. used      2011-08-20  
   planetary ephem.      DE405  
   SB-pert. ephem.      SB405-CPV-2  
   condition code      0  
   fit RMS      .44191  
   data source      ORB  
   producer      Otto Matic  
   solution date      2013-Apr-29 15:38:25  

Additional Information
 Earth MOID = .0041936 AU 
 T_jup = 4.020 
[ show covariance matrix ]

Ephemeris | Orbit Diagram | Orbital Elements | Physical Parameters | Discovery Circumstances | Close-Approach Data ]

Physical Parameter Table
Parameter Symbol Value Units Sigma Reference Notes
absolute magnitude H 17.482 mag .45281 86 autocmod 2.5c
rotation period rot_per 13.894 h n/a Asteroid Lightcurve DataBase (Rev. 2013-May-01) Published Reference List:
[Pravec, P.; et al. (2003) IAUC 8233. (1937 UB)]
[Behrend, R. (2003) Observatoire de Geneve web site, http://obswww.unige.ch/~behrend/page_cou.html]
[Pravec, P.; et al. (2006) Icarus 181, 63-93.]

69230 Hermes           Discovered 1937 Oct. 28 by K. Reinmuth at Heidelberg.
Hermes was the messenger of the gods, son of Zeus and Maia. His attributes are the most complex and varied of those of any of the major gods. He was a deity of wealth, god of trade and travelers, of commerce, manual skill, oratory and eloquence, of thieves and of the wind. Named by the Astronomisches Rechen-Institut.
NOTE: some special characters may not display properly (any characters within {} are an attempt to place the proper accent above a character)
Reference: 20031110/MPCPages.arcLast Updated: 2003-11-12

[ hide close-approach data ]
Close-Approach Data   ...sorted by Date/Time (TDB)
Date/Time (TDB) Time Uncertainty
(days_HH:MM)
Body Nominal Distance (AU) Minimum Distance (AU) Maximum Distance (AU) V-relative (km/s) V-infinity (km/s) JD (TDB) Time Uncertainty (minutes) Semi-major axis (km) Semi-minor axis (km) range-LOV angle (deg) N-sigma BP Orbit Ref. Reference Modified
1900-May-08 02:37 00:18 Venus 0.0981252413022982 0.0974605239533039 0.0987897270940897 20.5023577516903 20.501278318314 2415147.609082448 18.2016388190667 30925.1649398748 6.94767005799297 -3.26057912073298 106470.675348724 T 86 CATAB v2.0c-linF95 2013-Apr-29 15:38:29 2013-Apr-29 15:38
1914-Oct-29 03:45 00:03 Earth 0.02492490648363 0.0248315763852569 0.0250182322958939 19.0821388719972 19.07653593772 2420434.656018411 2.53812354978748 4070.38948516704 1.88433019289093 -4.463653987632 129612.633509029 T 86 CATAB v2.0c-linF95 2013-Apr-29 15:38:29 2013-Apr-29 15:38
1917-Jan-11 09:48 00:13 Earth 0.366271964594592 0.366258647028891 0.366285284927412 17.4287921099943 17.4283747156243 2421239.908435777 12.6910825190504 245.537715382117 8.22319924816432 -34.2329024758324 3161248.38549316 T 86 CATAB v2.0c-linF95 2013-Apr-29 15:38:29 2013-Apr-29 15:38
1919-Apr-04 22:19 00:06 Earth 0.227057506132041 0.226987423909573 0.227127614626811 12.3211261083177 12.3201736568088 2422053.429733259 5.92349331468101 1792.42230484414 3.2401717584386 -6.96784040519725 941366.165125698 T 86 CATAB v2.0c-linF95 2013-Apr-29 15:38:29 2013-Apr-29 15:38
1921-May-14 05:13 00:02 Earth 0.333982006219152 0.333911289732517 0.334052722218813 28.1415839669992 28.1413004736113 2422823.717467556 1.49251352873343 3447.21499439414 1.66468759930655 1.02312157845978 494606.010002897 T 86 CATAB v2.0c-linF95 2013-Apr-29 15:38:29 2013-Apr-29 15:38
1937-Oct-30 17:06 < 00:01 Earth 0.00494981762691106 0.0049488694356317 0.00495076590387095 18.2694249300058 18.2399366859278 2428837.212382691 0.0308694358283573 48.8037994553024 1.91298610977105 34.4796473362292 184253.11769371 T 86 CATAB v2.0c-linF95 2013-Apr-29 15:38:29 2013-Apr-29 15:38
1937-Oct-30 22:15 < 00:01 Moon 0.006589853495679 0.00658889214807679 0.00659081489231668 17.6537808479581 17.6534991337236 2428837.426929136 0.0345364254629173 55.1914848337378 2.25004113214031 30.639640858438 221054.845505782 T 86 CATAB v2.0c-linF95 2013-Apr-29 15:38:29 2013-Apr-29 15:38
1940-Jan-28 13:28 < 00:01 Earth 0.373663994362489 0.373663961615368 0.373664027109848 17.9263847469564 17.9259869667148 2429657.060927364 0.0811137238611355 9.12091072860287 1.83250643360169 82.178908125379 25672590.3645602 T 86 CATAB v2.0c-linF95 2013-Apr-29 15:38:29 2013-Apr-29 15:38
1942-Apr-26 18:19 < 00:01 Earth 0.00424154678135241 0.00424152607845899 0.00424156748438681 18.4801745170762 18.4461507812961 2430476.263208394 0.00808492590376079 1.92326476864979 0.69987254628368 72.3497022964189 736684.435398571 T 86 CATAB v2.0c-linF95 2013-Apr-29 15:38:29 2013-Apr-29 15:38
1942-Apr-26 21:31 < 00:01 Moon 0.00244810312510936 0.00244808321243897 0.00244812303778023 17.7469363689852 17.746182015421 2430476.396620472 0.00837729370418133 2.20828074691198 0.983907749714003 -89.1934258601471 367152.558810182 T 86 CATAB v2.0c-linF95 2013-Apr-29 15:38:29 2013-Apr-29 15:38
1950-Oct-05 09:08 < 00:01 Venus 0.0441458834857622 0.044145759045892 0.0441460079261847 13.7039379908179 13.7003480255563 2433559.880461491 0.00654039949697388 8.56159000627593 2.51712911493727 60.3370239567287 1844543.73852722 T 86 CATAB v2.0c-linF95 2013-Apr-29 15:38:29 2013-Apr-29 15:38
1954-Nov-01 21:16 < 00:01 Earth 0.0204414738652429 0.020441427173054 0.0204415205574391 17.7492819367427 17.7419366419077 2435048.386202347 0.00172767666523267 2.15110730875082 1.74880432478272 -46.8326019704599 1355335.31688193 T 86 CATAB v2.0c-linF95 2013-Apr-29 15:38:29 2013-Apr-29 15:38
1954-Nov-28 09:56 < 00:01 Venus 0.0529258711809575 0.0529257286565065 0.0529260137055616 16.2133440351326 16.2108132094201 2435074.913751397 0.00374868737904579 6.9923332883101 1.11946721820898 34.5719262416995 3471005.74369622 T 86 CATAB v2.0c-linF95 2013-Apr-29 15:38:29 2013-Apr-29 15:38
1957-Feb-20 22:03 < 00:01 Earth 0.34971898057294 0.349718893527314 0.349719067618584 16.4524192942876 16.4519561999259 2435890.418553515 0.0257465477174704 8.12704855125147 2.25547759456105 68.9740967844207 18025601.3613946 T 86 CATAB v2.0c-linF95 2013-Apr-29 15:38:29 2013-Apr-29 15:38
1959-May-15 09:18 < 00:01 Earth 0.354292794814622 0.3542924749658 0.354293114663431 28.7213754365187 28.721113590015 2436703.887308348 0.000676330647997045 15.5140982764392 1.67417671106211 3.65906362421995 3692770.10846874 T 86 CATAB v2.0c-linF95 2013-Apr-29 15:38:29 2013-Apr-29 15:38
1969-Oct-12 05:19 < 00:01 Earth 0.379367186284457 0.379367112041199 0.379367260527661 29.5987147186586 29.5984774275428 2440506.721422377 0.00167842471757943 3.64116086229438 2.64437397218905 17.8220631824254 15184892.189164 T 86 CATAB v2.0c-linF95 2013-Apr-29 15:38:29 2013-Apr-29 15:38
1972-Jan-01 23:27 < 00:01 Earth 0.344447379287631 0.34444733949105 0.344447419084417 16.2766715401284 16.2761962812813 2441318.477262669 0.0100213471824443 8.24618777071382 1.62416164370952 86.6755554303337 26133126.0501154 T 86 CATAB v2.0c-linF95 2013-Apr-29 15:38:29 2013-Apr-29 15:38
1974-Apr-24 15:09 < 00:01 Earth 0.0351137872410473 0.0351135346271058 0.0351140398550571 17.3227425236401 17.3183615266853 2442162.131229876 0.00278577223239256 10.4327952668509 1.58757514754939 -2.78334116297099 442745.963668511 T 86 CATAB v2.0c-linF95 2013-Apr-29 15:38:29 2013-Apr-29 15:38
1982-Sep-29 21:28 < 00:01 Venus 0.0531911829247257 0.0531907931342577 0.0531915727163406 13.3467725304684 13.343713366034 2445242.394504705 0.0412068277015063 15.3809193445908 1.68300053419156 -24.3844418891901 1585352.35222303 T 86 CATAB v2.0c-linF95 2013-Apr-29 15:38:29 2013-Apr-29 15:38
1986-Oct-29 00:40 < 00:01 Earth 0.0533191664056142 0.0533184727572511 0.053319860053736 19.8755987178244 19.8730843069011 2446732.528041224 0.0179202120370267 30.8018016680644 1.58026271346855 -4.10768581734733 384322.16535613 T 86 CATAB v2.0c-linF95 2013-Apr-29 15:38:29 2013-Apr-29 15:38
1986-Nov-24 09:04 < 00:01 Venus 0.056207540333383 0.0562070770728949 0.0562080036005222 16.5170850093347 16.5147457858014 2446758.877792428 0.0300051228840555 33.8546875746375 2.34690090634282 -52.0731226831998 2397973.87504525 T 86 CATAB v2.0c-linF95 2013-Apr-29 15:38:29 2013-Apr-29 15:38
1989-Feb-06 04:24 < 00:01 Earth 0.36852351767033 0.368523509672703 0.368523525669535 17.6202405865667 17.6198302498596 2447563.683403717 0.0732204941115423 9.89297265612946 1.80391595782221 83.0786346034953 25644509.3353742 T 86 CATAB v2.0c-linF95 2013-Apr-29 15:38:29 2013-Apr-29 15:38
1991-May-08 01:00 < 00:01 Earth 0.200493481258732 0.200493261853003 0.200493700664448 24.1567754603008 24.1562253141483 2448384.541325027 0.0127204464089015 10.4546479874188 1.65509799213834 0.0101213384084299 2604528.8255361 T 86 CATAB v2.0c-linF95 2013-Apr-29 15:38:29 2013-Apr-29 15:38
